• In Russia
  • List of Countries
  • For 7 days
  • Water Temperature
  • Satellite Maps
  • Weather Map
  • Weather Widgets
  • user-avatar
    Login

    Hourly Weather Brisbane

    Today, 10 December, Monday

    Time Temperature Precipitation Wind Pressure Humidity
    00:00 +21°C° 0 mm 3 mps 761 mmHg 89%
    01:00 +21°C° 0 mm 2 mps 761 mmHg 90%
    02:00 +21°C° 0 mm 2 mps 760 mmHg 90%
    03:00 +21°C° 0 mm 2 mps 760 mmHg 91%
    04:00 +20°C° 0 mm 2 mps 759 mmHg 92%
    05:00 +23°C° 0 mm 2 mps 760 mmHg 86%
    06:00 +24°C° 0 mm 2 mps 760 mmHg 80%
    07:00 +25°C° 0 mm 2 mps 760 mmHg 74%
    08:00 +27°C° 0.1 mm 2 mps 760 mmHg 66%
    09:00 +28°C° 0.1 mm 2 mps 760 mmHg 59%
    10:00 +30°C° 0 mm 2 mps 760 mmHg 53%
    11:00 +30°C° 0 mm 2 mps 760 mmHg 51%
    12:00 +31°C° 0 mm 2 mps 759 mmHg 48%
    13:00 +31°C° 0 mm 3 mps 759 mmHg 45%
    14:00 +31°C° 0 mm 3 mps 759 mmHg 45%
    15:00 +32°C° 0 mm 4 mps 758 mmHg 46%
    16:00 +32°C° 0 mm 4 mps 758 mmHg 46%
    17:00 +29°C° 0 mm 4 mps 758 mmHg 55%
    18:00 +27°C° 0 mm 3 mps 759 mmHg 63%
    19:00 +25°C° 0 mm 3 mps 759 mmHg 72%
    20:00 +24°C° 0 mm 3 mps 760 mmHg 77%
    21:00 +23°C° 0 mm 2 mps 760 mmHg 82%
    22:00 +21°C° 0 mm 2 mps 761 mmHg 88%
    23:00 +21°C° 0 mm 2 mps 760 mmHg 89%

    Tomorrow, 11 December, Tuesday

    Time Temperature Precipitation Wind Pressure Humidity
    00:00 +22°C° 0 mm 1 mps 760 mmHg 90%
    01:00 +21°C° 0 mm 1 mps 760 mmHg 91%
    02:00 +21°C° 0 mm 1 mps 760 mmHg 91%
    03:00 +21°C° 0 mm 1 mps 759 mmHg 92%
    04:00 +19°C° 0 mm 0 mps 759 mmHg 92%
    05:00 +23°C° 0 mm 1 mps 760 mmHg 86%
    06:00 +24°C° 0 mm 1 mps 760 mmHg 80%
    07:00 +25°C° 0 mm 1 mps 760 mmHg 74%
    08:00 +27°C° 0 mm 1 mps 760 mmHg 66%
    09:00 +28°C° 0 mm 2 mps 760 mmHg 57%
    10:00 +30°C° 0 mm 2 mps 760 mmHg 49%
    11:00 +31°C° 0 mm 3 mps 760 mmHg 46%
    12:00 +33°C° 0 mm 3 mps 759 mmHg 43%
    13:00 +34°C° 0 mm 4 mps 759 mmHg 40%
    14:00 +33°C° 0 mm 4 mps 758 mmHg 43%
    15:00 +32°C° 0 mm 4 mps 758 mmHg 46%
    16:00 +30°C° 0 mm 4 mps 757 mmHg 49%
    17:00 +28°C° 0 mm 4 mps 758 mmHg 57%
    18:00 +26°C° 0 mm 3 mps 758 mmHg 66%
    19:00 +24°C° 0 mm 3 mps 758 mmHg 75%
    20:00 +24°C° 0 mm 3 mps 759 mmHg 80%
    21:00 +23°C° 0 mm 2 mps 760 mmHg 84%
    22:00 +21°C° 0 mm 2 mps 761 mmHg 89%
    23:00 +21°C° 0.1 mm 2 mps 760 mmHg 89%

    Day after tomorrow, 12 December, Wednesday

    Time Temperature Precipitation Wind Pressure Humidity
    00:00 +21°C° 0.1 mm 2 mps 760 mmHg 90%
    01:00 +21°C° 0.1 mm 2 mps 759 mmHg 90%
    02:00 +21°C° 0 mm 2 mps 759 mmHg 91%
    03:00 +22°C° 0 mm 1 mps 758 mmHg 91%
    04:00 +22°C° 0 mm 1 mps 758 mmHg 92%
    05:00 +23°C° 0 mm 1 mps 758 mmHg 87%
    06:00 +24°C° 0 mm 1 mps 758 mmHg 81%
    07:00 +25°C° 0 mm 1 mps 759 mmHg 76%
    08:00 +26°C° 0 mm 1 mps 759 mmHg 71%
    09:00 +27°C° 0 mm 1 mps 759 mmHg 66%
    10:00 +27°C° 0 mm 2 mps 759 mmHg 62%
    11:00 +28°C° 0 mm 2 mps 758 mmHg 58%
    12:00 +29°C° 0 mm 3 mps 758 mmHg 54%
    13:00 +30°C° 0 mm 3 mps 757 mmHg 51%
    14:00 +30°C° 0 mm 3 mps 756 mmHg 51%
    15:00 +30°C° 0 mm 4 mps 756 mmHg 51%
    16:00 +30°C° 0 mm 4 mps 756 mmHg 51%
    17:00 +28°C° 0 mm 4 mps 756 mmHg 57%
    18:00 +26°C° 0 mm 4 mps 756 mmHg 64%
    19:00 +25°C° 0 mm 4 mps 756 mmHg 70%
    20:00 +23°C° 0 mm 4 mps 757 mmHg 73%
    21:00 +24°C° 0 mm 3 mps 757 mmHg 76%
    22:00 +22°C° 0 mm 3 mps 757 mmHg 79%
    23:00 +22°C° 0.1 mm 3 mps 757 mmHg 81%

    13 December, Thursday

    Time Temperature Precipitation Wind Pressure Humidity
    00:00 +21°C° 0.1 mm 2 mps 757 mmHg 83%
    01:00 +21°C° 0.1 mm 2 mps 756 mmHg 85%
    02:00 +21°C° 0 mm 2 mps 756 mmHg 86%
    03:00 +21°C° 0 mm 2 mps 756 mmHg 87%
    04:00 +21°C° 0 mm 3 mps 756 mmHg 87%
    05:00 +22°C° 0 mm 3 mps 756 mmHg 83%
    06:00 +22°C° 0 mm 3 mps 756 mmHg 79%
    07:00 +24°C° 0 mm 3 mps 756 mmHg 75%
    08:00 +27°C° 0 mm 3 mps 755 mmHg 65%
    09:00 +29°C° 0 mm 4 mps 755 mmHg 55%
    10:00 +33°C° 0 mm 4 mps 755 mmHg 45%
    11:00 +34°C° 0 mm 4 mps 754 mmHg 43%
    12:00 +35°C° 0 mm 5 mps 753 mmHg 41%
    13:00 +36°C° 0 mm 5 mps 753 mmHg 39%
    14:00 +34°C° 0.3 mm 6 mps 752 mmHg 48%
    15:00 +32°C° 0.3 mm 6 mps 752 mmHg 57%
    16:00 +29°C° 0.3 mm 6 mps 751 mmHg 66%
    17:00 +28°C° 1.2 mm 6 mps 752 mmHg 73%
    18:00 +27°C° 1.2 mm 5 mps 752 mmHg 79%
    19:00 +26°C° 1.2 mm 5 mps 753 mmHg 85%
    20:00 +25°C° 0.8 mm 5 mps 753 mmHg 86%
    21:00 +25°C° 0.8 mm 5 mps 753 mmHg 88%
    22:00 +23°C° 0.8 mm 5 mps 753 mmHg 89%
    23:00 +23°C° 0.4 mm 5 mps 753 mmHg 89%

    14 December, Friday

    Time Temperature Precipitation Wind Pressure Humidity
    00:00 +23°C° 0.4 mm 6 mps 752 mmHg 90%
    01:00 +23°C° 0.4 mm 6 mps 752 mmHg 90%
    02:00 +23°C° 0 mm 5 mps 751 mmHg 89%
    03:00 +23°C° 0 mm 4 mps 751 mmHg 89%
    04:00 +24°C° 0 mm 3 mps 751 mmHg 88%
    05:00 +25°C° 0 mm 3 mps 751 mmHg 85%
    06:00 +25°C° 0 mm 3 mps 752 mmHg 83%
    07:00 +26°C° 0 mm 4 mps 753 mmHg 81%
    08:00 +27°C° 0 mm 4 mps 753 mmHg 76%
    09:00 +28°C° 0 mm 4 mps 752 mmHg 72%
    10:00 +30°C° 0 mm 4 mps 752 mmHg 67%
    11:00 +30°C° 0.2 mm 4 mps 752 mmHg 66%
    12:00 +32°C° 0.2 mm 4 mps 752 mmHg 66%
    13:00 +32°C° 0.2 mm 4 mps 751 mmHg 65%
    14:00 +32°C° 0.5 mm 5 mps 751 mmHg 67%
    15:00 +30°C° 0.5 mm 5 mps 751 mmHg 69%
    16:00 +30°C° 0.5 mm 5 mps 751 mmHg 71%
    17:00 +29°C° 0.5 mm 5 mps 751 mmHg 75%
    18:00 +28°C° 0.5 mm 5 mps 752 mmHg 79%
    19:00 +27°C° 0.5 mm 6 mps 752 mmHg 83%
    20:00 +27°C° 1 mm 6 mps 752 mmHg 85%
    21:00 +26°C° 1 mm 6 mps 753 mmHg 86%
    22:00 +26°C° 1 mm 6 mps 753 mmHg 88%
    23:00 +26°C° 0.7 mm 5 mps 753 mmHg 88%

    15 December, Saturday

    Time Temperature Precipitation Wind Pressure Humidity
    00:00 +26°C° 0.7 mm 5 mps 753 mmHg 88%
    01:00 +26°C° 0.7 mm 4 mps 753 mmHg 87%
    02:00 +26°C° 1.4 mm 4 mps 753 mmHg 89%
    03:00 +25°C° 1.4 mm 4 mps 752 mmHg 90%
    04:00 +25°C° 1.4 mm 4 mps 752 mmHg 92%
    05:00 +26°C° 0.6 mm 4 mps 753 mmHg 89%
    06:00 +26°C° 0.6 mm 4 mps 753 mmHg 86%
    07:00 +27°C° 0.6 mm 5 mps 754 mmHg 83%
    08:00 +28°C° 0.3 mm 5 mps 753 mmHg 77%
    09:00 +30°C° 0.3 mm 5 mps 753 mmHg 71%
    10:00 +32°C° 0.3 mm 5 mps 753 mmHg 65%
    11:00 +32°C° 0.7 mm 5 mps 753 mmHg 66%
    12:00 +32°C° 0.7 mm 6 mps 753 mmHg 67%
    13:00 +32°C° 0.7 mm 6 mps 752 mmHg 68%
    14:00 +32°C° 0.4 mm 6 mps 752 mmHg 72%
    15:00 +30°C° 0.4 mm 6 mps 752 mmHg 75%
    16:00 +29°C° 0.4 mm 6 mps 752 mmHg 78%
    17:00 +28°C° 0.2 mm 6 mps 753 mmHg 82%
    18:00 +27°C° 0.2 mm 6 mps 753 mmHg 85%
    19:00 +26°C° 0.2 mm 6 mps 754 mmHg 89%
    20:00 +26°C° 0.2 mm 5 mps 754 mmHg 90%
    21:00 +26°C° 0.2 mm 5 mps 754 mmHg 91%
    22:00 +26°C° 0.2 mm 5 mps 755 mmHg 92%
    23:00 +26°C° 0.1 mm 4 mps 754 mmHg 93%
    Show more